Location: Middlebury
(44.0133°N, 73.1813°W)
Time: 06:06:34
(UTC-05:00)

ISS - Pass Details

Date: 21 January 2020
Orbit: 416 x 422 km, 51.6° (Epoch: 20 February)

Event Time Altitude Azimuth Distance (km) Brightness Sun altitude
Rises 17:42:20 0° 205° (SSW) 2,363 0.8 -9.9°
Reaches altitude 10° 17:44:41 10° 191° (S) 1,502 -0.6 -10.3°
Maximum altitude 17:47:26 23° 136° (SE) 938 -2.2 -10.8°
Enters shadow 17:49:12 16° 94° (E) 1,205 -2.0 -11.1°
